Time,TemperatureF,DewpointF,PressureIn,WindDirection,WindDirectionDegrees,WindSpeedMPH,WindSpeedGustMPH,Humidity,HourlyPrecipIn,Conditions,Clouds,dailyrainin,SoftwareType,DateUTC
2013-01-07 00:02:00,30.0,28.0,-100.00,SSW,193,2.0,9.0,94,0.00,,,0.00,,2013-01-07 08:02:00,
2013-01-07 00:22:00,30.0,28.0,-100.00,SE,124,1.0,8.0,94,0.02,,,0.02,,2013-01-07 08:22:00,
2013-01-07 00:33:00,30.0,28.0,-100.00,SE,124,1.0,8.0,94,0.02,,,0.02,,2013-01-07 08:33:00,
2013-01-07 00:43:00,30.0,28.0,-100.00,SE,124,1.0,8.0,94,0.02,,,0.02,,2013-01-07 08:43:00,
2013-01-07 00:53:00,30.0,28.0,-100.00,SE,124,1.0,8.0,94,0.02,,,0.02,,2013-01-07 08:53:00,
2013-01-07 01:02:00,30.0,28.0,-100.00,SE,124,1.0,8.0,94,0.02,,,0.02,,2013-01-07 09:02:00,
2013-01-07 01:32:00,30.0,29.0,-100.00,NNW,334,0.0,9.0,95,0.07,,,0.09,,2013-01-07 09:32:00,
2013-01-07 01:42:00,30.0,29.0,-100.00,NNW,334,0.0,9.0,95,0.07,,,0.09,,2013-01-07 09:42:00,
2013-01-07 01:52:00,30.0,29.0,-100.00,NNW,334,0.0,9.0,95,0.07,,,0.09,,2013-01-07 09:52:00,
2013-01-07 02:02:00,30.0,29.0,-100.00,NNW,334,0.0,9.0,95,0.07,,,0.09,,2013-01-07 10:02:00,
2013-01-07 02:33:00,30.0,29.0,-100.00,North,351,0.0,12.0,95,0.05,,,0.14,,2013-01-07 10:33:00,
2013-01-07 02:42:00,30.0,29.0,-100.00,North,351,0.0,12.0,95,0.05,,,0.14,,2013-01-07 10:42:00,
2013-01-07 02:52:00,30.0,29.0,-100.00,North,351,0.0,12.0,95,0.05,,,0.14,,2013-01-07 10:52:00,
2013-01-07 03:02:00,30.0,29.0,-100.00,North,351,0.0,12.0,95,0.05,,,0.14,,2013-01-07 11:02:00,
2013-01-07 03:33:00,29.0,27.0,-100.00,SE,125,0.0,3.0,94,0.02,,,0.16,,2013-01-07 11:33:00,
2013-01-07 03:43:00,29.0,27.0,-100.00,SE,125,0.0,3.0,94,0.02,,,0.16,,2013-01-07 11:43:00,
2013-01-07 03:53:00,29.0,27.0,-100.00,SE,125,0.0,3.0,94,0.02,,,0.16,,2013-01-07 11:53:00,
2013-01-07 04:02:00,29.0,27.0,-100.00,SE,125,0.0,3.0,94,0.02,,,0.16,,2013-01-07 12:02:00,
2013-01-07 04:23:00,29.0,27.0,-100.00,NE,47,2.0,7.0,94,0.00,,,0.16,,2013-01-07 12:23:00,
2013-01-07 04:33:00,29.0,27.0,-100.00,NE,47,2.0,7.0,94,0.00,,,0.16,,2013-01-07 12:33:00,
2013-01-07 04:43:00,29.0,27.0,-100.00,NE,47,2.0,7.0,94,0.00,,,0.16,,2013-01-07 12:43:00,
2013-01-07 04:53:00,29.0,27.0,-100.00,NE,47,2.0,7.0,94,0.00,,,0.16,,2013-01-07 12:53:00,
2013-01-07 05:02:00,29.0,27.0,-100.00,NE,47,2.0,7.0,94,0.00,,,0.16,,2013-01-07 13:02:00,
2013-01-07 05:23:00,29.0,27.0,-100.00,NE,42,1.0,6.0,94,0.01,,,0.17,,2013-01-07 13:23:00,
2013-01-07 05:33:00,29.0,27.0,-100.00,NE,42,1.0,6.0,94,0.01,,,0.17,,2013-01-07 13:33:00,
2013-01-07 05:43:00,29.0,27.0,-100.00,NE,42,1.0,6.0,94,0.01,,,0.17,,2013-01-07 13:43:00,
2013-01-07 05:53:00,29.0,27.0,-100.00,NE,42,1.0,6.0,94,0.01,,,0.17,,2013-01-07 13:53:00,
2013-01-07 06:02:00,29.0,27.0,-100.00,NE,42,1.0,6.0,94,0.01,,,0.17,,2013-01-07 14:02:00,
2013-01-07 06:33:00,29.0,27.0,-100.00,NE,41,0.0,7.0,93,0.00,,,0.17,,2013-01-07 14:33:00,
2013-01-07 06:43:00,29.0,27.0,-100.00,NE,41,0.0,7.0,93,0.00,,,0.17,,2013-01-07 14:43:00,
2013-01-07 06:53:00,29.0,27.0,-100.00,NE,41,0.0,7.0,93,0.00,,,0.17,,2013-01-07 14:53:00,
2013-01-07 07:02:00,29.0,27.0,-100.00,NE,41,0.0,7.0,93,0.00,,,0.17,,2013-01-07 15:02:00,
2013-01-07 07:23:00,27.0,25.0,-100.00,NE,37,2.0,9.0,92,0.00,,,0.17,,2013-01-07 15:23:00,
2013-01-07 07:33:00,27.0,25.0,-100.00,NE,37,2.0,9.0,92,0.00,,,0.17,,2013-01-07 15:33:00,
2013-01-07 07:43:00,27.0,25.0,-100.00,NE,37,2.0,9.0,92,0.00,,,0.17,,2013-01-07 15:43:00,
2013-01-07 07:53:00,27.0,25.0,-100.00,NE,37,2.0,9.0,92,0.00,,,0.17,,2013-01-07 15:53:00,
2013-01-07 08:02:00,27.0,25.0,-100.00,NE,37,2.0,9.0,92,0.00,,,0.17,,2013-01-07 16:02:00,
2013-01-07 08:33:00,30.0,27.0,-100.00,ENE,67,0.0,8.0,89,0.00,,,0.17,,2013-01-07 16:33:00,
2013-01-07 08:43:00,30.0,27.0,-100.00,ENE,67,0.0,8.0,89,0.00,,,0.17,,2013-01-07 16:43:00,
2013-01-07 08:53:00,30.0,27.0,-100.00,ENE,67,0.0,8.0,89,0.00,,,0.17,,2013-01-07 16:53:00,
2013-01-07 09:02:00,30.0,27.0,-100.00,ENE,67,0.0,8.0,89,0.00,,,0.17,,2013-01-07 17:02:00,
2013-01-07 09:23:00,36.0,22.0,-100.00,SSW,205,1.0,9.0,56,0.00,,,0.17,,2013-01-07 17:23:00,
2013-01-07 09:33:00,36.0,22.0,-100.00,SSW,205,1.0,9.0,56,0.00,,,0.17,,2013-01-07 17:33:00,
2013-01-07 09:42:00,36.0,22.0,-100.00,SSW,205,1.0,9.0,56,0.00,,,0.17,,2013-01-07 17:42:00,
2013-01-07 09:53:00,36.0,22.0,-100.00,SSW,205,1.0,9.0,56,0.00,,,0.17,,2013-01-07 17:53:00,
2013-01-07 10:02:00,36.0,22.0,-100.00,SSW,205,1.0,9.0,56,0.00,,,0.17,,2013-01-07 18:02:00,
2013-01-07 10:33:00,34.0,21.0,-100.00,NNE,30,0.0,8.0,58,0.00,,,0.17,,2013-01-07 18:33:00,
2013-01-07 10:43:00,34.0,21.0,-100.00,NNE,30,0.0,8.0,58,0.00,,,0.17,,2013-01-07 18:43:00,
2013-01-07 10:53:00,34.0,21.0,-100.00,NNE,30,0.0,8.0,58,0.00,,,0.17,,2013-01-07 18:53:00,
2013-01-07 11:02:00,34.0,21.0,-100.00,NNE,30,0.0,8.0,58,0.00,,,0.17,,2013-01-07 19:02:00,
2013-01-07 11:33:00,45.0,21.0,-100.00,NNE,14,3.0,7.0,38,0.00,,,0.17,,2013-01-07 19:33:00,
2013-01-07 12:33:00,43.0,20.0,-100.00,NNW,345,4.0,10.0,39,-99.99,,,0.17,,2013-01-07 20:33:00,
2013-01-07 13:23:00,45.0,20.0,-100.00,NE,51,4.0,10.0,36,-99.99,,,0.17,,2013-01-07 21:23:00,
2013-01-07 13:33:00,45.0,20.0,-100.00,NE,51,4.0,10.0,36,-99.99,,,0.17,,2013-01-07 21:33:00,
2013-01-07 14:23:00,43.0,19.0,-100.00,NE,51,3.0,12.0,38,-99.99,,,0.17,,2013-01-07 22:23:00,
2013-01-07 14:33:00,43.0,19.0,-100.00,NE,51,3.0,12.0,38,-99.99,,,0.17,,2013-01-07 22:33:00,
2013-01-07 14:43:00,43.0,19.0,-100.00,NE,51,3.0,12.0,38,-99.99,,,0.17,,2013-01-07 22:43:00,
2013-01-07 14:53:00,43.0,19.0,-100.00,NE,51,3.0,12.0,38,-99.99,,,0.17,,2013-01-07 22:53:00,
2013-01-07 15:02:00,43.0,19.0,-100.00,NE,51,3.0,12.0,38,-99.99,,,0.17,,2013-01-07 23:02:00,
2013-01-07 15:33:00,40.0,16.0,-100.00,NE,48,3.0,13.0,38,0.00,,,0.17,,2013-01-07 23:33:00,
2013-01-07 15:43:00,40.0,16.0,-100.00,NE,48,3.0,13.0,38,0.00,,,0.17,,2013-01-07 23:43:00,
2013-01-07 15:53:00,40.0,16.0,-100.00,NE,48,3.0,13.0,38,0.00,,,0.17,,2013-01-07 23:53:00,
2013-01-07 16:02:00,40.0,16.0,-100.00,NE,48,3.0,13.0,38,0.00,,,0.17,,2013-01-08 00:02:00,
2013-01-07 16:23:00,39.0,15.0,-100.00,NNE,22,4.0,12.0,37,0.00,,,0.17,,2013-01-08 00:23:00,
2013-01-07 16:33:00,39.0,15.0,-100.00,NNE,22,4.0,12.0,37,0.00,,,0.17,,2013-01-08 00:33:00,
2013-01-07 16:42:00,39.0,15.0,-100.00,NNE,22,4.0,12.0,37,0.00,,,0.17,,2013-01-08 00:42:00,
2013-01-07 16:52:00,39.0,15.0,-100.00,NNE,22,4.0,12.0,37,0.00,,,0.17,,2013-01-08 00:52:00,
2013-01-07 17:02:00,39.0,15.0,-100.00,NNE,22,4.0,12.0,37,0.00,,,0.17,,2013-01-08 01:02:00,
2013-01-07 17:22:00,36.0,12.0,-100.00,NNE,31,4.0,15.0,36,0.00,,,0.17,,2013-01-08 01:22:00,
2013-01-07 17:33:00,36.0,12.0,-100.00,NNE,31,4.0,15.0,36,0.00,,,0.17,,2013-01-08 01:33:00,
2013-01-07 17:42:00,36.0,12.0,-100.00,NNE,31,4.0,15.0,36,0.00,,,0.17,,2013-01-08 01:42:00,
2013-01-07 17:52:00,36.0,12.0,-100.00,NNE,31,4.0,15.0,36,0.00,,,0.17,,2013-01-08 01:52:00,
2013-01-07 18:02:00,36.0,12.0,-100.00,NNE,31,4.0,15.0,36,0.00,,,0.17,,2013-01-08 02:02:00,
2013-01-07 18:22:00,38.0,11.0,-100.00,ENE,71,3.0,16.0,33,0.00,,,0.17,,2013-01-08 02:22:00,
2013-01-07 18:33:00,38.0,11.0,-100.00,ENE,71,3.0,16.0,33,0.00,,,0.17,,2013-01-08 02:33:00,
2013-01-07 18:43:00,38.0,11.0,-100.00,ENE,71,3.0,16.0,33,0.00,,,0.17,,2013-01-08 02:43:00,
2013-01-07 18:53:00,38.0,11.0,-100.00,ENE,71,3.0,16.0,33,0.00,,,0.17,,2013-01-08 02:53:00,
2013-01-07 19:02:00,38.0,11.0,-100.00,ENE,71,3.0,16.0,33,0.00,,,0.17,,2013-01-08 03:02:00,
2013-01-07 19:33:00,36.0,11.0,-100.00,NE,44,2.0,14.0,35,0.00,,,0.17,,2013-01-08 03:33:00,
2013-01-07 19:43:00,36.0,11.0,-100.00,NE,44,2.0,14.0,35,0.00,,,0.17,,2013-01-08 03:43:00,
2013-01-07 19:53:00,36.0,11.0,-100.00,NE,44,2.0,14.0,35,0.00,,,0.17,,2013-01-08 03:53:00,
2013-01-07 20:02:00,36.0,11.0,-100.00,NE,44,2.0,14.0,35,0.00,,,0.17,,2013-01-08 04:02:00,
2013-01-07 20:03:00,38.0,12.0,-100.00,WNW,296,1.0,11.0,34,0.00,,,0.17,,2013-01-08 04:03:00,
2013-01-07 20:32:00,38.0,12.0,-100.00,WNW,296,1.0,11.0,34,0.00,,,0.17,,2013-01-08 04:32:00,
2013-01-07 20:43:00,38.0,12.0,-100.00,WNW,296,1.0,11.0,34,0.00,,,0.17,,2013-01-08 04:43:00,
2013-01-07 20:52:00,38.0,12.0,-100.00,WNW,296,1.0,11.0,34,0.00,,,0.17,,2013-01-08 04:52:00,
2013-01-07 21:22:00,37.0,11.0,-100.00,ENE,74,3.0,14.0,33,0.00,,,0.17,,2013-01-08 05:22:00,
2013-01-07 21:33:00,37.0,11.0,-100.00,ENE,74,3.0,14.0,33,0.00,,,0.17,,2013-01-08 05:33:00,
2013-01-07 21:43:00,37.0,11.0,-100.00,ENE,74,3.0,14.0,33,0.00,,,0.17,,2013-01-08 05:43:00,
2013-01-07 21:53:00,37.0,11.0,-100.00,ENE,74,3.0,14.0,33,0.00,,,0.17,,2013-01-08 05:53:00,
2013-01-07 22:02:00,37.0,11.0,-100.00,ENE,74,3.0,14.0,33,0.00,,,0.17,,2013-01-08 06:02:00,
2013-01-07 22:22:00,39.0,9.0,-100.00,NNW,331,4.0,12.0,29,0.00,,,0.17,,2013-01-08 06:22:00,
2013-01-07 22:33:00,39.0,9.0,-100.00,NNW,331,4.0,12.0,29,0.00,,,0.17,,2013-01-08 06:33:00,
2013-01-07 22:42:00,39.0,9.0,-100.00,NNW,331,4.0,12.0,29,0.00,,,0.17,,2013-01-08 06:42:00,
2013-01-07 22:52:00,39.0,9.0,-100.00,NNW,331,4.0,12.0,29,0.00,,,0.17,,2013-01-08 06:52:00,
2013-01-07 23:02:00,39.0,9.0,-100.00,NNW,331,4.0,12.0,29,0.00,,,0.17,,2013-01-08 07:02:00,
2013-01-07 23:32:00,39.0,9.0,-100.00,NE,41,2.0,14.0,28,0.00,,,0.17,,2013-01-08 07:32:00,
2013-01-07 23:42:00,39.0,9.0,-100.00,NE,41,2.0,14.0,28,0.00,,,0.17,,2013-01-08 07:42:00,
2013-01-07 23:52:00,39.0,9.0,-100.00,NE,41,2.0,14.0,28,0.00,,,0.17,,2013-01-08 07:52:00,